Greenville, TX

11:08 PM CST on November 21, 2019 (GMT -0600)
Majors

Weather History for KGVT - October, 2019

Change the Weather History Date:

Sunday, October 20, 2019

  Actual Average Record
Temperature  
Mean Temperature 71 °F -  
Max Temperature 89 °F 74 °F 89 °F (2004)
Min Temperature 53 °F 55 °F 35 °F (2006)
Cooling Degree Days 6    
Growing Degree Days 21 (Base 50)    
Moisture  
Dew Point 62 °F    
Average Humidity 66    
Maximum Humidity 100    
Minimum Humidity 38    
Precipitation  
Precipitation 0.00 in - - ()
Sea Level Pressure  
Sea Level Pressure 29.74 in    
Wind  
Wind Speed 4 mph (SSE)    
Max Wind Speed 24 mph    
Max Gust Speed 37 mph    
Visibility 9 miles    
Events Fog , Rain , Thunderstorm    
Averages and records for this station are not official NWS values.
T = Trace of Precipitation, MM = Missing Value Source: NWS Daily Summary

Daily Weather History Graph

Daily Weather History Graph

Search for Another Location

Airport or City:

Astronomy

Oct. 20, 2019 Rise Set
Actual Time 7:32 AM CDT 6:45 PM CDT
Civil Twilight 7:07 AM CDT 7:10 PM CDT
Nautical Twilight 6:38 AM CDT 7:39 PM CDT
Astronomical Twilight 6:09 AM CDT 8:07 PM CDT
Moon No Moon Rise 1:48 PM CDT (10/20)
Length of Visible Light 12h 03m
Length of Day
11h 13m
Waning Gibbous, 59% of the Moon is Illuminated
Oct 20
Waning Gibbous
Oct 21
Last Quarter
Oct 27
New
Nov 4
First Quarter
Nov 12
Full

Hourly Weather History & Observations

Time (CDT) Temp. Heat Index Dew Point Humidity Pressure Visibility Wind Dir Wind Speed Gust Speed Precip Events Conditions
12:15 AM 62.6 °F - 59.0 °F 88% 29.81 in 10.0 mi Calm Calm - N/A   Clear
12:35 AM 62.6 °F - 59.0 °F 88% 29.81 in 10.0 mi Calm Calm - N/A   Clear
12:55 AM 62.6 °F - 59.0 °F 88% 29.81 in 10.0 mi Calm Calm - N/A   Clear
1:15 AM 62.6 °F - 57.2 °F 82% 29.81 in 10.0 mi NNW 4.6 mph - N/A   Clear
1:35 AM 60.8 °F - 57.2 °F 88% 29.81 in 10.0 mi North 5.8 mph - N/A   Clear
1:55 AM 60.8 °F - 57.2 °F 88% 29.81 in 10.0 mi North 4.6 mph - N/A   Clear
2:15 AM 60.8 °F - 55.4 °F 82% 29.80 in 10.0 mi North 4.6 mph - N/A   Clear
2:35 AM 60.8 °F - 55.4 °F 82% 29.80 in 10.0 mi North 5.8 mph - N/A   Clear
2:55 AM 60.8 °F - 57.2 °F 88% 29.80 in 10.0 mi Calm Calm - N/A   Clear
3:15 AM 59.0 °F - 55.4 °F 88% 29.80 in 10.0 mi Calm Calm - N/A   Clear
3:35 AM 59.0 °F - 59.0 °F 100% 29.79 in 10.0 mi Calm Calm - N/A   Clear
3:55 AM 59.0 °F - 59.0 °F 100% 29.79 in 10.0 mi Calm Calm - N/A   Clear
4:15 AM 59.0 °F - 59.0 °F 100% 29.80 in 10.0 mi Calm Calm - N/A   Clear
4:35 AM 55.4 °F - 55.4 °F 100% 29.80 in 5.0 mi Calm Calm - N/A   Clear
5:15 AM 57.2 °F - - N/A% 29.81 in 10.0 mi Calm Calm - N/A   Clear
5:35 AM 55.4 °F - - N/A% 29.81 in 10.0 mi Calm Calm - N/A   Clear
5:55 AM 57.2 °F - - N/A% 29.82 in 10.0 mi Calm Calm - N/A   Clear
6:15 AM 59.0 °F - - N/A% 29.82 in 10.0 mi Calm Calm - N/A   Clear
6:35 AM 57.2 °F - - N/A% 29.82 in 7.0 mi Calm Calm - N/A   Clear
6:55 AM 53.6 °F - - N/A% 29.82 in 0.2 mi Calm Calm - N/A Fog Fog
7:15 AM 53.6 °F - - N/A% 29.82 in 0.2 mi Calm Calm - N/A Fog Fog
7:35 AM 55.4 °F - - N/A% 29.82 in 0.5 mi Calm Calm - N/A Fog Fog
7:55 AM 53.6 °F - - N/A% 29.82 in 10.0 mi Calm Calm - N/A   Clear
8:15 AM 55.4 °F - - N/A% 29.83 in 5.0 mi Calm Calm - N/A   Haze
8:35 AM 59.0 °F - - N/A% 29.83 in 7.0 mi Calm Calm - N/A   Clear
8:55 AM 60.8 °F - - N/A% 29.84 in 10.0 mi Calm Calm - N/A   Clear
9:15 AM 64.4 °F - - N/A% 29.84 in 10.0 mi Calm Calm - N/A   Clear
9:35 AM 66.2 °F - 62.6 °F 88% 29.84 in 10.0 mi Calm Calm - N/A   Clear
10:15 AM 71.6 °F - 60.8 °F 69% 29.84 in 10.0 mi SSE 3.5 mph - N/A   Clear
10:55 AM 77.0 °F - 62.6 °F 61% 29.83 in 10.0 mi SSE 5.8 mph - N/A   Clear
11:15 AM 77.0 °F - 62.6 °F 61% 29.83 in 10.0 mi SE 6.9 mph - N/A   Clear
11:35 AM 78.8 °F - 60.8 °F 54% 29.82 in 10.0 mi South 4.6 mph - N/A   Clear
12:15 PM 80.6 °F 81.5 °F 60.8 °F 51% 29.81 in 10.0 mi South 5.8 mph - N/A   Clear
12:35 PM 82.4 °F 82.9 °F 60.8 °F 48% 29.79 in 10.0 mi SSE 9.2 mph - N/A   Clear
12:55 PM 82.4 °F 82.9 °F 60.8 °F 48% 29.78 in 10.0 mi SSE 11.5 mph - N/A   Clear
1:15 PM 82.4 °F 82.9 °F 60.8 °F 48% 29.78 in 10.0 mi South 8.1 mph - N/A   Clear
1:35 PM 84.2 °F 84.4 °F 60.8 °F 45% 29.76 in 10.0 mi SSE 5.8 mph - N/A   Clear
1:55 PM 86.0 °F 85.4 °F 59.0 °F 40% 29.74 in 10.0 mi SSE 8.1 mph - N/A   Clear
2:35 PM 87.8 °F 87.1 °F 59.0 °F 38% 29.71 in 10.0 mi SSE 11.5 mph 16.1 mph N/A   Clear
2:55 PM 87.8 °F 87.1 °F 59.0 °F 38% 29.70 in 10.0 mi SE 12.7 mph 19.6 mph N/A   Clear
3:15 PM 89.6 °F 89.5 °F 60.8 °F 38% 29.70 in 10.0 mi South 18.4 mph 25.3 mph N/A   Clear
3:35 PM 87.8 °F 87.6 °F 60.8 °F 40% 29.70 in 10.0 mi South 15.0 mph 21.9 mph N/A   Clear
3:55 PM 87.8 °F 87.6 °F 60.8 °F 40% 29.69 in 10.0 mi South 12.7 mph 23.0 mph N/A   Clear
4:15 PM 89.6 °F 90.1 °F 62.6 °F 40% 29.69 in 10.0 mi South 17.3 mph - N/A   Clear
4:35 PM 89.6 °F 90.1 °F 62.6 °F 40% 29.68 in 10.0 mi South 17.3 mph 21.9 mph N/A   Clear
4:55 PM 89.6 °F 91.1 °F 64.4 °F 43% 29.66 in 10.0 mi South 18.4 mph 24.2 mph N/A   Scattered Clouds
5:15 PM 87.8 °F 89.4 °F 64.4 °F 46% 29.66 in 10.0 mi South 20.7 mph 25.3 mph N/A   Clear
5:35 PM 87.8 °F 90.4 °F 66.2 °F 49% 29.66 in 10.0 mi South 15.0 mph 23.0 mph N/A   Clear
5:55 PM 86.0 °F 89.4 °F 68.0 °F 55% 29.66 in 10.0 mi South 13.8 mph - N/A   Clear
6:15 PM 84.2 °F 87.3 °F 68.0 °F 58% 29.67 in 10.0 mi South 11.5 mph - N/A   Clear
6:35 PM 82.4 °F 85.4 °F 68.0 °F 62% 29.66 in 10.0 mi South 10.4 mph - N/A   Scattered Clouds
6:55 PM 80.6 °F 83.2 °F 68.0 °F 65% 29.66 in 10.0 mi SSE 8.1 mph - N/A   Scattered Clouds
7:15 PM 80.6 °F 83.2 °F 68.0 °F 65% 29.65 in 10.0 mi SSE 8.1 mph - N/A   Clear
7:35 PM 80.6 °F 83.2 °F 68.0 °F 65% 29.65 in 10.0 mi SSE 6.9 mph - N/A   Clear
7:55 PM 78.8 °F - 68.0 °F 69% 29.66 in 10.0 mi SE 8.1 mph - N/A   Clear
8:15 PM 78.8 °F - 68.0 °F 69% 29.65 in 10.0 mi SE 6.9 mph - N/A   Clear
8:35 PM 78.8 °F - 68.0 °F 69% 29.66 in 10.0 mi SE 6.9 mph - N/A   Clear
8:55 PM 78.8 °F - 68.0 °F 69% 29.64 in 10.0 mi ESE 8.1 mph - N/A   Clear
9:15 PM 78.8 °F - 68.0 °F 69% 29.62 in 10.0 mi ESE 10.4 mph - N/A   Scattered Clouds
9:35 PM 80.6 °F 83.2 °F 68.0 °F 65% 29.64 in 10.0 mi SE 6.9 mph - N/A   Scattered Clouds
9:50 PM 80.6 °F 83.9 °F 69.8 °F 70% 29.62 in 10.0 mi ESE 8.1 mph - N/A Rain , Thunderstorm Light Thunderstorms and Rain
10:15 PM 78.8 °F - 69.8 °F 74% 29.64 in 10.0 mi NNE 6.9 mph - N/A Rain , Thunderstorm Light Thunderstorms and Rain
10:30 PM 71.6 °F - 68.0 °F 88% 29.65 in 5.0 mi NW 6.9 mph 11.5 mph N/A Rain , Thunderstorm Light Thunderstorms and Rain
10:55 PM 77.0 °F - 69.8 °F 78% 29.63 in 10.0 mi South 24.2 mph 36.8 mph N/A Thunderstorm Overcast
11:20 PM 71.6 °F - 60.8 °F 69% 29.59 in 10.0 mi South 16.1 mph 20.7 mph N/A Thunderstorm Mostly Cloudy
11:35 PM 71.6 °F - 59.0 °F 64% 29.58 in 10.0 mi SSE 11.5 mph 17.3 mph N/A Thunderstorm Scattered Clouds
11:55 PM 71.6 °F - 60.8 °F 69% 29.56 in 10.0 mi SSE 15.0 mph - N/A   Mostly Cloudy